Back to catalog

STARLINK-11538

AliveCommunicationsVLEO
NORAD 62554·PAYLOAD·🇺🇸 United States

Launched Jan 10, 2025 from Cape Canaveral Space Force Station

Loading…

Next Passes (next 24 hours)

TLE

FreshSource: CelesTrak SupGP

Epoch: Sep 14, 2026, 14:10 UTC

1 62554C 25006A   26257.59076389  .00015197  00000+0  11805-3 0  2571
2 62554  43.0006  80.8986 0001684 259.0150 175.9891 15.70828200    11

Track STARLINK-11538 in real time with AllMySat

Download on the App Store